[[{"header":{"parameterUnit":"m.s-1","parameterCategory":1,"la1":30.2991,"la2":30.254,"lo1":-89.0895,"lo2":-89.0444,"dy":0.0017,"dx":0.0017,"nx":28,"ny":28,"refTime":"2024-08-28T03:00:00:Z","depth":0,"parameterNumber":2,"parameterNumberName":"U-component_of_WINDS"},"data":[0,0,0,0,0,0,0,0,0,0,0,0,0,0,0,0,0,0,0,0,0,0,0,0,0,0,0,0,0,0,0,0,0,0,0,0,0,0,0,0,0,0,0,0,0,0,0,0,0,0,0,0,0,0,0,0,0,0,-1.0998,-1.0997,0,-1.0944,-1.0944,-1.0943,-1.0906,-1.0906,-1.0906,-1.0906,-1.0846,-1.0845,-1.0844,0,0,0,0,0,0,0,0,0,0,0,0,0,-1.1065,-1.1064,-1.0998,-1.0997,-1.0997,-1.0944,-1.0944,-1.0943,-1.0907,-1.0906,-1.0906,-1.0906,-1.0847,-1.0845,-1.0844,0,0,0,0,0,0,0,0,0,0,0,0,0,-1.1026,-1.1064,-1.0998,-1.0972,-1.0969,-1.0945,-1.0944,-1.0943,-1.0907,-1.0906,-1.0906,-1.0905,-1.0847,-1.0845,-1.0843,-1.0839,0,0,-1.0837,-1.0836,0,0,0,0,0,0,0,0,-1.1028,-1.1024,-1.0977,-1.0974,-1.0971,-1.0932,-1.0946,-1.0908,-1.0907,-1.093,-1.0906,-1.0905,-1.0875,-1.0871,-1.0861,-1.0836,-1.0833,-1.0837,-1.0836,-1.0835,-1.0834,0,0,0,0,0,0,0,-1.1031,-1.1026,-1.0977,-1.0976,-1.0972,-1.0962,-1.0956,-1.0938,-1.0905,-1.0928,-1.0925,-1.092,-1.0873,-1.0863,-1.086,-1.0832,-1.0837,-1.0835,-1.0834,-1.0833,-1.08,-1.08,0,0,0,0,0,0,-1.1038,-1.1028,-1.0978,-1.0975,-1.0999,-1.0961,-1.0955,-1.0945,-1.0905,-1.0899,-1.092,-1.0918,-1.0867,-1.0862,-1.0857,-1.0849,-1.0835,-1.0833,-1.0832,-1.08,-1.08,-1.08,0,0,0,0,0,0,-1.104,-1.1034,-1.098,-1.1001,-1.0993,-1.0961,-1.095,-1.0944,-1.0934,-1.0899,-1.0893,-1.0916,-1.0866,-1.086,-1.0844,-1.0846,-1.0832,-1.083,-1.0799,-1.08,-1.08,-1.0832,0,0,0,0,0,0,-1.1042,-1.1035,-1.1034,-1.1001,-1.0992,-1.0969,-1.095,-1.0943,-1.0931,-1.0928,-1.0894,-1.0888,-1.0866,-1.0847,-1.0842,-1.0843,-1.0829,-1.0799,-1.08,-1.08,-1.0831,-1.0834,-1.0836,0,0,0,0,0,-1.1045,-1.1044,-1.1034,-1.1028,-1.099,-1.0969,-1.0964,-1.094,-1.0931,-1.0929,-1.0907,-1.0889,-1.0847,-1.0846,-1.0839,-1.084,-1.0799,-1.0799,-1.08,-1.083,-1.0833,-1.0836,0,0,0,0,0,0,-1.1076,-1.1039,-1.1028,-1.1017,-1.0997,-1.0963,-1.096,-1.0944,-1.0925,-1.0923,-1.0892,-1.0884,-1.0871,-1.0854,-1.0853,-1.0833,-1.0821,-1.082,-1.0845,-1.0848,-1.0851,-1.0855,-1.0827,0,0,0,0,0,-1.1083,-1.107,-1.1038,-1.1031,-1.1022,-1.0993,-1.0983,-1.0966,-1.0943,-1.0934,-1.091,-1.0888,-1.087,-1.0858,-1.0839,-1.0828,-1.082,-1.0826,-1.0829,-1.0831,-1.0831,-1.0823,-1.0825,-1.0803,-1.0803,-1.0803,0,0,-1.1094,-1.1073,-1.1066,-1.1037,-1.102,-1.1006,-1.0986,-1.0972,-1.0962,-1.0931,-1.0915,-1.0897,-1.087,-1.0856,-1.0849,-1.0841,-1.0835,-1.0832,-1.0834,-1.0832,-1.0824,-1.0827,-1.0828,-1.0803,-1.0803,-1.0803,0,0,-1.1109,-1.1092,-1.1084,-1.1068,-1.1042,-1.1022,-1.1021,-1.099,-1.0977,-1.096,-1.0937,-1.0923,-1.0893,-1.0874,-1.0861,-1.0869,-1.0851,-1.0864,-1.0878,-1.0871,-1.0873,-1.0874,-1.0876,-1.0878,-1.0864,-1.0864,-1.0864,0,-1.1127,-1.1107,-1.1082,-1.107,-1.1058,-1.1031,-1.1023,-1.1007,-1.0976,-1.0968,-1.096,-1.0921,-1.0901,-1.0883,-1.0885,-1.0875,-1.0871,-1.0867,-1.0875,-1.0876,-1.0877,-1.0879,-1.088,-1.0865,-1.0865,-1.0865,-1.0865,0,-1.1129,-1.1116,-1.1113,-1.1085,-1.1072,-1.1062,-1.1035,-1.1025,-1.1009,-1.099,-1.0973,-1.0948,-1.0924,-1.0918,-1.0902,-1.0897,-1.0893,-1.0881,-1.0867,-1.0881,-1.0882,-1.0883,-1.0868,-1.0867,-1.0867,-1.0866,0,0,-1.1162,-1.1122,-1.1121,-1.1108,-1.1078,-1.1066,-1.1054,-1.1032,-1.1024,-1.1003,-1.0992,-1.0967,-1.0955,-1.094,-1.0921,-1.0915,-1.0923,-1.0903,-1.0902,-1.0907,-1.0916,-1.0925,-1.0927,-1.0911,-1.0911,-1.0911,-1.0918,0,-1.1172,-1.1152,-1.1129,-1.1116,-1.1103,-1.1077,-1.1067,-1.1047,-1.1029,-1.1014,-1.0993,-1.0976,-1.0962,-1.0953,-1.0946,-1.0923,-1.0924,-1.0923,-1.0899,-1.0899,-1.0907,-1.0927,-1.0937,-1.0945,-1.0918,-1.0918,-1.0918,0,-1.1181,-1.1163,-1.1149,-1.112,-1.1114,-1.1105,-1.1083,-1.1069,-1.1045,-1.1032,-1.1016,-1.0996,-1.0982,-1.097,-1.0949,-1.0949,-1.0938,-1.0925,-1.0925,-1.0921,-1.0909,-1.0924,-1.0946,-1.0947,-1.0919,-1.0919,-1.0919,0,-1.1206,-1.1178,-1.1166,-1.1156,-1.1122,-1.1116,-1.1102,-1.1077,-1.1065,-1.1045,-1.1037,-1.1015,-1.1003,-1.0986,-1.096,-1.0955,-1.0942,-1.0928,-1.093,-1.093,-1.0928,-1.0928,-1.0948,-1.0921,-1.0921,-1.0921,-1.0921,0,-1.122,-1.1212,-1.1177,-1.117,-1.116,-1.1134,-1.1124,-1.1107,-1.1086,-1.1074,-1.105,-1.1039,-1.1006,-1.099,-1.097,-1.0955,-1.095,-1.0939,-1.0933,-1.0941,-1.0942,-1.0933,-1.0931,-1.0922,-1.0922,-1.0922,-1.0922,0,-1.1246,-1.1223,-1.1208,-1.1177,-1.1169,-1.1163,-1.1136,-1.1127,-1.1109,-1.1093,-1.1088,-1.1058,-1.1038,-1.1012,-1.0983,-1.097,-1.0957,-1.0949,-1.0966,-1.0963,-1.0966,-1.0966,-1.098,-1.0981,-1.0954,-1.0955,-1.0955,0,-1.1256,-1.125,-1.1219,-1.121,-1.1196,-1.1181,-1.1169,-1.1143,-1.1131,-1.1103,-1.1098,-1.1077,-1.1059,-1.1028,-1.1003,-1.0981,-1.0972,-1.0978,-1.0968,-1.0976,-1.0971,-1.0972,-1.0971,-1.0981,-1.0981,-1.0982,-1.0982,0,-1.1276,-1.1265,-1.125,-1.123,-1.1217,-1.1199,-1.1181,-1.1174,-1.1144,-1.1132,-1.1112,-1.1098,-1.107,-1.1049,-1.1024,-1.1007,-1.0989,-1.0985,-1.0985,-1.0992,-1.1002,-1.0996,-1.0972,-1.0985,-1.0985,-1.0985,-1.0984,-1.0984,-1.1295,-1.1288,-1.1265,-1.1248,-1.1232,-1.1215,-1.1206,-1.1186,-1.117,-1.1146,-1.1131,-1.1112,-1.1087,-1.1052,-1.1036,-1.102,-1.1013,-1.1011,-1.1011,-1.1011,-1.1013,-1.1005,-1.1015,-1.1015,-1.1015,-1.1015,-1.1015,0,-1.1314,-1.1298,-1.1283,-1.1258,-1.1245,-1.1231,-1.1209,-1.1199,-1.1183,-1.1162,-1.1145,-1.1123,-1.1102,-1.1075,-1.1053,-1.1045,-1.1036,-1.104,-1.104,-1.1036,-1.1021,-1.1024,-1.1048,-1.1048,-1.1047,-1.1047,-1.1047,-1.1047,-1.1322,-1.131,-1.1296,-1.1275,-1.1258,-1.1241,-1.123,-1.1214,-1.1197,-1.1174,-1.1157,-1.114,-1.1117,-1.1092,-1.1073,-1.1065,-1.1058,-1.1064,-1.1054,-1.104,-1.1037,-1.1035,-1.1037,-1.1063,-1.1063,-1.107,-1.107,-1.107]},{"header":{"parameterUnit":"m.s-1","parameterCategory":1,"la1":30.2991,"la2":30.254,"lo1":-89.0895,"lo2":-89.0444,"dy":0.0017,"dx":0.0017,"nx":28,"ny":28,"refTime":"2024-08-28T03:00:00:Z","depth":0,"parameterNumber":3,"parameterNumberName":"V-component_of_WINDS"},"data":[0,0,0,0,0,0,0,0,0,0,0,0,0,0,0,0,0,0,0,0,0,0,0,0,0,0,0,0,0,0,0,0,0,0,0,0,0,0,0,0,0,0,0,0,0,0,0,0,0,0,0,0,0,0,0,0,0,0,4.7159,4.7159,0,4.7188,4.7188,4.7189,4.7158,4.7157,4.7155,4.7154,4.7181,4.7182,4.7184,0,0,0,0,0,0,0,0,0,0,0,0,0,4.7074,4.7076,4.7159,4.716,4.716,4.7188,4.7188,4.7189,4.7158,4.7157,4.7155,4.7154,4.718,4.7182,4.7184,0,0,0,0,0,0,0,0,0,0,0,0,0,4.7108,4.7076,4.7159,4.7148,4.7147,4.7188,4.7188,4.7189,4.7158,4.7157,4.7155,4.7153,4.7179,4.7182,4.7185,4.7236,0,0,4.7193,4.7194,0,0,0,0,0,0,0,0,4.7106,4.7111,4.7149,4.7149,4.7148,4.7168,4.7168,4.7205,4.7159,4.7154,4.7154,4.7152,4.7178,4.718,4.7189,4.7238,4.7239,4.7193,4.7195,4.7196,4.7197,0,0,0,0,0,0,0,4.7103,4.7109,4.717,4.715,4.7149,4.714,4.7143,4.7175,4.7175,4.7154,4.7152,4.7156,4.7177,4.7187,4.719,4.7239,4.7193,4.7195,4.7197,4.7198,4.733,4.7332,0,0,0,0,0,0,4.7103,4.7108,4.7169,4.7171,4.7122,4.7143,4.7147,4.7163,4.7175,4.7175,4.7158,4.7155,4.7183,4.7187,4.7191,4.7251,4.7196,4.7198,4.72,4.7328,4.733,4.7332,0,0,0,0,0,0,4.7101,4.7109,4.7168,4.7139,4.7146,4.7147,4.7165,4.7165,4.7175,4.7177,4.7177,4.7168,4.7182,4.7187,4.7225,4.7251,4.72,4.7202,4.7326,4.7329,4.7331,4.7373,0,0,0,0,0,0,4.7099,4.7108,4.7129,4.714,4.7148,4.7204,4.7167,4.7166,4.718,4.7176,4.7187,4.7187,4.7181,4.7221,4.7228,4.7254,4.7204,4.7323,4.7327,4.733,4.7369,4.7376,4.7383,0,0,0,0,0,4.7096,4.7139,4.713,4.7138,4.7174,4.7205,4.721,4.7203,4.7182,4.7202,4.7204,4.7187,4.7248,4.7226,4.7233,4.726,4.7322,4.7326,4.733,4.7366,4.7375,4.7383,0,0,0,0,0,0,4.713,4.714,4.713,4.7179,4.7191,4.72,4.7225,4.7213,4.7231,4.7227,4.7216,4.7219,4.7259,4.7264,4.7239,4.731,4.7281,4.7287,4.7306,4.7315,4.7322,4.7319,4.7206,0,0,0,0,0,4.7144,4.717,4.7177,4.7218,4.7225,4.7224,4.7238,4.7231,4.7244,4.7249,4.7253,4.7265,4.7286,4.7301,4.7321,4.737,4.7371,4.7392,4.7399,4.7405,4.741,4.7434,4.7443,4.7346,4.7346,4.7346,0,0,4.7171,4.718,4.7197,4.7225,4.7235,4.726,4.7229,4.7258,4.7276,4.7253,4.7289,4.7293,4.7305,4.7349,4.7368,4.7353,4.7437,4.741,4.7415,4.7416,4.7439,4.7448,4.7457,4.7349,4.7349,4.7348,0,0,4.7234,4.7244,4.7279,4.7289,4.7304,4.7303,4.7311,4.7322,4.7324,4.736,4.7343,4.7364,4.7402,4.7411,4.7421,4.7487,4.7472,4.7494,4.753,4.7554,4.7562,4.7568,4.7591,4.7599,4.7499,4.7499,4.7499,0,4.7266,4.7306,4.7299,4.7329,4.7341,4.7322,4.7357,4.7366,4.7386,4.7395,4.7379,4.7425,4.7432,4.7477,4.7493,4.7502,4.751,4.7492,4.7562,4.7568,4.7574,4.7595,4.7604,4.7501,4.7501,4.7501,4.7501,0,4.7344,4.7371,4.7398,4.7418,4.7434,4.7466,4.7463,4.7479,4.7471,4.7471,4.7508,4.7516,4.7537,4.7547,4.7539,4.759,4.7581,4.7563,4.7534,4.7586,4.7606,4.7614,4.7505,4.7504,4.7503,4.7503,0,0,4.7429,4.7445,4.7455,4.7463,4.7478,4.7498,4.7529,4.755,4.7564,4.7578,4.7603,4.7635,4.7619,4.763,4.7623,4.7645,4.7695,4.7624,4.7624,4.7636,4.7749,4.7761,4.7771,4.7685,4.7687,4.7688,4.7748,0,4.7491,4.7546,4.754,4.7591,4.7616,4.7597,4.7624,4.7635,4.7636,4.7656,4.7656,4.7679,4.7657,4.7663,4.7683,4.7684,4.7717,4.768,4.7706,4.7707,4.7702,4.7781,4.7794,4.7851,4.7756,4.7757,4.7758,0,4.7572,4.7589,4.7643,4.7653,4.7663,4.7687,4.7705,4.7725,4.7737,4.7736,4.7748,4.7737,4.7767,4.7738,4.7777,4.7752,4.7762,4.7765,4.7766,4.7768,4.7735,4.7783,4.7869,4.7876,4.777,4.7769,4.7768,0,4.7627,4.7664,4.7701,4.7709,4.7721,4.7738,4.7744,4.7754,4.7767,4.7783,4.7791,4.781,4.782,4.7834,4.7828,4.7808,4.7868,4.7839,4.7867,4.7867,4.788,4.7879,4.7967,4.7889,4.7889,4.7889,4.7888,0,4.7696,4.7729,4.7725,4.7748,4.7784,4.7777,4.7812,4.7816,4.7825,4.7846,4.7832,4.7852,4.7844,4.7864,4.7859,4.7892,4.7897,4.7896,4.7894,4.7897,4.7896,4.7902,4.7898,4.7891,4.789,4.789,4.7889,0,4.7764,4.7763,4.7801,4.781,4.7813,4.7839,4.7846,4.7866,4.7866,4.7894,4.79,4.7899,4.7921,4.7917,4.7942,4.7939,4.7979,4.7973,4.7975,4.7973,4.8001,4.7998,4.8095,4.8106,4.8022,4.8023,4.8024,0,4.7808,4.7833,4.7844,4.7858,4.7865,4.7888,4.7901,4.7894,4.7908,4.7923,4.7941,4.7963,4.7979,4.8015,4.8016,4.8035,4.8028,4.8061,4.8031,4.8032,4.8027,4.8025,4.8027,4.8066,4.8067,4.8068,4.8068,0,4.7885,4.7883,4.7903,4.7923,4.7939,4.7954,4.7967,4.7979,4.7973,4.7989,4.8012,4.8025,4.805,4.8071,4.8088,4.8092,4.8079,4.8078,4.8085,4.8087,4.8087,4.8086,4.799,4.8076,4.8075,4.8074,4.8074,4.8074,4.7941,4.7962,4.7974,4.7996,4.8005,4.8018,4.8037,4.8039,4.8059,4.8079,4.8074,4.8099,4.8109,4.813,4.8137,4.8156,4.8144,4.8155,4.8157,4.816,4.8162,4.8085,4.8159,4.8159,4.8159,4.8159,4.8159,0,4.8017,4.8023,4.8044,4.8063,4.808,4.8067,4.8081,4.8096,4.8119,4.8129,4.8146,4.8172,4.8191,4.8194,4.8212,4.8227,4.8221,4.8232,4.823,4.8231,4.8173,4.8164,4.8236,4.8236,4.8236,4.8236,4.8236,4.8236,4.8058,4.8093,4.8092,4.813,4.8136,4.8162,4.817,4.8181,4.819,4.8219,4.8236,4.8238,4.8245,4.8263,4.8281,4.8281,4.8287,4.83,4.8298,4.8243,4.8235,4.8228,4.822,4.8302,4.8302,4.8354,4.8355,4.8355]}]]